| time (UTC) | temp C | wind direction | speed KPH | gust KPH | rain 1hr cm | rain 24hr cm | rain mn cm | humidity % | barometer mb |
| 20260903123536 | 14 | 92 | 6.4 | 12.9 | 0.00 | 0.00 | 0.00 | 65 | 1023.3 |
| 20260903123043 | 14 | 89 | 6.4 | 14.5 | 0.00 | 0.00 | 0.00 | 65 | 1023.3 |
| 20260903122553 | 14 | 87 | 9.7 | 14.5 | 0.00 | 0.00 | 0.00 | 65 | 1023.1 |
| 20260903122059 | 14 | 107 | 6.4 | 11.3 | 0.00 | 0.00 | 0.00 | 65 | 1023.1 |
| 20260903121502 | 14 | 96 | 4.8 | 11.3 | 0.00 | 0.00 | 0.00 | 65 | 1023.1 |
| 20260903121057 | 14 | 96 | 6.4 | 11.3 | 0.00 | 0.00 | 0.00 | 65 | 1023.1 |
| 20260903120607 | 14 | 108 | 6.4 | 9.7 | 0.00 | 0.00 | 0.00 | 65 | 1023.1 |
| 20260903120056 | 14 | 144 | 8.0 | 12.9 | 0.00 | 0.00 | 0.00 | 64 | 1023.0 |
| 20260903115604 | 14 | 114 | 8.0 | 12.9 | 0.00 | 0.00 | 0.00 | 64 | 1023.0 |
| 20260903115056 | 15 | 123 | 8.0 | 11.3 | 0.00 | 0.00 | 0.00 | 64 | 1023.0 |
| 20260903114605 | 15 | 101 | 4.8 | 9.7 | 0.00 | 0.00 | 0.00 | 63 | 1023.0 |
| 20260903114010 | 15 | 80 | 4.8 | 9.7 | 0.00 | 0.00 | 0.00 | 63 | 1022.9 |
| 20260903113606 | 15 | 105 | 6.4 | 12.9 | 0.00 | 0.00 | 0.00 | 63 | 1022.9 |
| 20260903113006 | 15 | 111 | 8.0 | 12.9 | 0.00 | 0.00 | 0.00 | 63 | 1022.8 |
| 20260903112518 | 15 | 138 | 3.2 | 9.7 | 0.00 | 0.00 | 0.00 | 63 | 1022.9 |
| 20260903112022 | 15 | 107 | 3.2 | 9.7 | 0.00 | 0.00 | 0.00 | 62 | 1022.9 |
| 20260903111530 | 15 | 135 | 4.8 | 9.7 | 0.00 | 0.00 | 0.00 | 62 | 1022.9 |
| 20260903111040 | 15 | 117 | 3.2 | 9.7 | 0.00 | 0.00 | 0.00 | 61 | 1022.9 |
| 20260903110547 | 15 | 115 | 3.2 | 9.7 | 0.00 | 0.00 | 0.00 | 61 | 1022.9 |
| 20260903110051 | 15 | 102 | 4.8 | 8.0 | 0.00 | 0.00 | 0.00 | 61 | 1022.9 |
| 20260903105545 | 15 | 78 | 3.2 | 9.7 | 0.00 | 0.00 | 0.00 | 61 | 1022.8 |
| 20260903105049 | 15 | 80 | 4.8 | 9.7 | 0.00 | 0.00 | 0.00 | 61 | 1022.8 |
| 20260903104605 | 15 | 96 | 4.8 | 9.7 | 0.00 | 0.00 | 0.00 | 60 | 1022.8 |
| 20260903104001 | 15 | 99 | 3.2 | 9.7 | 0.00 | 0.00 | 0.00 | 60 | 1022.8 |
| 20260903103556 | 15 | 98 | 6.4 | 9.7 | 0.00 | 0.00 | 0.00 | 60 | 1022.8 |
| 20260903103104 | 16 | 103 | 4.8 | 9.7 | 0.00 | 0.00 | 0.00 | 59 | 1022.8 |
| 20260903102557 | 16 | 113 | 3.2 | 6.4 | 0.00 | 0.00 | 0.00 | 59 | 1022.8 |
| 20260903102047 | 16 | 117 | 3.2 | 6.4 | 0.00 | 0.00 | 0.00 | 59 | 1022.9 |
| 20260903101556 | 16 | 101 | 4.8 | 6.4 | 0.00 | 0.00 | 0.00 | 59 | 1022.9 |
| 20260903101102 | 16 | 88 | 3.2 | 6.4 | 0.00 | 0.00 | 0.00 | 59 | 1022.9 |
| 20260903100505 | 16 | 101 | 4.8 | 6.4 | 0.00 | 0.00 | 0.00 | 59 | 1022.9 |
| 20260903100042 | 16 | 126 | 3.2 | 9.7 | 0.00 | 0.00 | 0.00 | 59 | 1023.0 |
| 20260903095549 | 16 | 92 | 4.8 | 9.7 | 0.00 | 0.00 | 0.00 | 59 | 1023.0 |
| 20260903095058 | 16 | 90 | 3.2 | 6.4 | 0.00 | 0.00 | 0.00 | 59 | 1022.9 |
| 20260903094502 | 16 | 105 | 3.2 | 6.4 | 0.00 | 0.00 | 0.00 | 58 | 1022.8 |
| 20260903094057 | 16 | 109 | 3.2 | 6.4 | 0.00 | 0.00 | 0.00 | 58 | 1022.9 |
| 20260903093606 | 16 | 107 | 3.2 | 6.4 | 0.00 | 0.00 | 0.00 | 58 | 1022.8 |
| 20260903093103 | 16 | 99 | 1.6 | 6.4 | 0.00 | 0.00 | 0.00 | 58 | 1022.9 |
| 20260903092605 | 16 | 95 | 3.2 | 8.0 | 0.00 | 0.00 | 0.00 | 58 | 1022.9 |
| 20260903092058 | 16 | 105 | 4.8 | 8.0 | 0.00 | 0.00 | 0.00 | 58 | 1022.8 |
| 20260903091500 | 16 | 98 | 4.8 | 9.7 | 0.00 | 0.00 | 0.00 | 58 | 1022.8 |
| 20260903091009 | 16 | 123 | 4.8 | 9.7 | 0.00 | 0.00 | 0.00 | 57 | 1022.8 |
| 20260903090606 | 16 | 128 | 4.8 | 6.4 | 0.00 | 0.00 | 0.00 | 57 | 1022.8 |
| 20260903090008 | 16 | 126 | 3.2 | 6.4 | 0.00 | 0.00 | 0.00 | 57 | 1022.7 |
| 20260903085603 | 16 | 117 | 3.2 | 9.7 | 0.00 | 0.00 | 0.00 | 57 | 1022.7 |
| 20260903085006 | 16 | 121 | 3.2 | 9.7 | 0.00 | 0.00 | 0.00 | 56 | 1022.8 |
| 20260903084604 | 17 | 116 | 4.8 | 9.7 | 0.00 | 0.00 | 0.00 | 56 | 1022.7 |
| 20260903084007 | 16 | 114 | 4.8 | 9.7 | 0.00 | 0.00 | 0.00 | 56 | 1022.7 |
| 20260903083604 | 16 | 98 | 4.8 | 9.7 | 0.00 | 0.00 | 0.00 | 57 | 1022.7 |
| 20260903083054 | 16 | 97 | 3.2 | 6.4 | 0.00 | 0.00 | 0.00 | 57 | 1022.7 |
| 20260903082601 | 16 | 61 | 0.0 | 3.2 | 0.00 | 0.00 | 0.00 | 56 | 1022.7 |
| 20260903082054 | 17 | 61 | 0.0 | 3.2 | 0.00 | 0.00 | 0.00 | 56 | 1022.7 |
| 20260903081602 | 17 | 61 | 0.0 | 4.8 | 0.00 | 0.00 | 0.00 | 56 | 1022.8 |
| 20260903081054 | 17 | 73 | 3.2 | 6.4 | 0.00 | 0.00 | 0.00 | 56 | 1022.8 |
| 20260903080545 | 17 | 32 | 3.2 | 6.4 | 0.00 | 0.00 | 0.00 | 55 | 1022.8 |
| 20260903080053 | 17 | 101 | 3.2 | 6.4 | 0.00 | 0.00 | 0.00 | 55 | 1022.7 |
| 20260903075601 | 17 | 123 | 3.2 | 9.7 | 0.00 | 0.00 | 0.00 | 55 | 1022.7 |
| 20260903075003 | 17 | 115 | 4.8 | 9.7 | 0.00 | 0.00 | 0.00 | 55 | 1022.8 |
| 20260903074559 | 17 | 134 | 4.8 | 9.7 | 0.00 | 0.00 | 0.00 | 55 | 1022.8 |
| 20260903074004 | 17 | 123 | 4.8 | 9.7 | 0.00 | 0.00 | 0.00 | 55 | 1022.7 |
| 20260903073601 | 17 | 131 | 6.4 | 9.7 | 0.00 | 0.00 | 0.00 | 54 | 1022.7 |
| 20260903073003 | 17 | 113 | 4.8 | 6.4 | 0.00 | 0.00 | 0.00 | 54 | 1022.7 |
| 20260903072600 | 17 | 119 | 4.8 | 6.4 | 0.00 | 0.00 | 0.00 | 54 | 1022.7 |
| 20260903072052 | 17 | 96 | 3.2 | 6.4 | 0.00 | 0.00 | 0.00 | 54 | 1022.8 |
| 20260903071603 | 17 | 95 | 3.2 | 6.4 | 0.00 | 0.00 | 0.00 | 53 | 1022.8 |
| 20260903071054 | 17 | 75 | 1.6 | 4.8 | 0.00 | 0.00 | 0.00 | 53 | 1022.7 |
| 20260903070541 | 17 | 5 | 0.0 | 4.8 | 0.00 | 0.00 | 0.00 | 53 | 1022.7 |
| 20260903070050 | 17 | 80 | 1.6 | 4.8 | 0.00 | 0.00 | 0.00 | 53 | 1022.6 |
| 20260903065558 | 18 | 36 | 1.6 | 6.4 | 0.00 | 0.00 | 0.00 | 53 | 1022.5 |
| 20260903065000 | 18 | 67 | 1.6 | 6.4 | 0.00 | 0.00 | 0.00 | 52 | 1022.5 |
| 20260903064556 | 18 | 100 | 3.2 | 6.4 | 0.00 | 0.00 | 0.00 | 52 | 1022.5 |
| 20260903064103 | 18 | 96 | 3.2 | 4.8 | 0.00 | 0.00 | 0.00 | 52 | 1022.5 |
| 20260903063557 | 18 | 360 | 0.0 | 4.8 | 0.00 | 0.00 | 0.00 | 52 | 1022.6 |
| 20260903063109 | 18 | 92 | 0.0 | 8.0 | 0.00 | 0.00 | 0.00 | 52 | 1022.6 |
| 20260903062557 | 18 | 84 | 3.2 | 12.9 | 0.00 | 0.00 | 0.00 | 52 | 1022.5 |
| 20260903062047 | 18 | 102 | 6.4 | 12.9 | 0.00 | 0.00 | 0.00 | 52 | 1022.3 |
| 20260903061601 | 18 | 90 | 4.8 | 12.9 | 0.00 | 0.00 | 0.00 | 52 | 1022.3 |
| 20260903061108 | 18 | 155 | 4.8 | 12.9 | 0.00 | 0.00 | 0.00 | 52 | 1022.4 |
| 20260903060505 | 18 | 96 | 4.8 | 11.3 | 0.00 | 0.00 | 0.00 | 51 | 1022.4 |
| 20260903060103 | 18 | 91 | 6.4 | 11.3 | 0.00 | 0.00 | 0.00 | 51 | 1022.3 |
| 20260903055506 | 18 | 88 | 4.8 | 9.7 | 0.00 | 0.00 | 0.00 | 51 | 1022.5 |
| 20260903055103 | 18 | 104 | 4.8 | 6.4 | 0.00 | 0.00 | 0.00 | 51 | 1022.4 |
| 20260903054553 | 18 | 134 | 3.2 | 9.7 | 0.00 | 0.00 | 0.00 | 50 | 1022.3 |
| 20260903054101 | 19 | 109 | 4.8 | 6.4 | 0.00 | 0.00 | 0.00 | 50 | 1022.5 |
| 20260903053555 | 19 | 110 | 3.2 | 6.4 | 0.00 | 0.00 | 0.00 | 49 | 1022.5 |
| 20260903053102 | 19 | 103 | 3.2 | 9.7 | 0.00 | 0.00 | 0.00 | 49 | 1022.5 |
| 20260903052555 | 19 | 114 | 4.8 | 9.7 | 0.00 | 0.00 | 0.00 | 49 | 1022.5 |
| 20260903052102 | 20 | 113 | 4.8 | 8.0 | 0.00 | 0.00 | 0.00 | 48 | 1022.5 |
| 20260903051507 | 20 | 123 | 1.6 | 3.2 | 0.00 | 0.00 | 0.00 | 47 | 1022.5 |
| 20260903051102 | 20 | 123 | 0.0 | 3.2 | 0.00 | 0.00 | 0.00 | 47 | 1022.6 |
| 20260903050502 | 20 | 84 | 0.0 | 1.6 | 0.00 | 0.00 | 0.00 | 46 | 1022.6 |
| 20260903050100 | 20 | 84 | 0.0 | 3.2 | 0.00 | 0.00 | 0.00 | 46 | 1022.5 |
| 20260903045505 | 20 | 84 | 1.6 | 8.0 | 0.00 | 0.00 | 0.00 | 46 | 1022.5 |
| 20260903045103 | 20 | 76 | 3.2 | 8.0 | 0.00 | 0.00 | 0.00 | 46 | 1022.5 |
| 20260903044554 | 20 | 84 | 3.2 | 8.0 | 0.00 | 0.00 | 0.00 | 46 | 1022.4 |
| 20260903044100 | 21 | 72 | 3.2 | 8.0 | 0.00 | 0.00 | 0.00 | 45 | 1022.4 |
| 20260903043554 | 21 | 81 | 3.2 | 8.0 | 0.00 | 0.00 | 0.00 | 45 | 1022.4 |
| 20260903043101 | 21 | 84 | 3.2 | 6.4 | 0.00 | 0.00 | 0.00 | 44 | 1022.4 |
| 20260903042555 | 21 | 113 | 3.2 | 9.7 | 0.00 | 0.00 | 0.00 | 44 | 1022.3 |
| 20260903042043 | 21 | 88 | 4.8 | 11.3 | 0.00 | 0.00 | 0.00 | 44 | 1022.3 |
| 20260903041551 | 21 | 85 | 4.8 | 8.0 | 0.00 | 0.00 | 0.00 | 44 | 1022.3 |
| 20260903041101 | 21 | 90 | 4.8 | 8.0 | 0.00 | 0.00 | 0.00 | 44 | 1022.3 |
| 20260903040502 | 21 | 74 | 3.2 | 8.0 | 0.00 | 0.00 | 0.00 | 44 | 1022.4 |
| 20260903040103 | 21 | 63 | 3.2 | 8.0 | 0.00 | 0.00 | 0.00 | 44 | 1022.4 |
| 20260903035604 | 21 | 63 | 3.2 | 8.0 | 0.00 | 0.00 | 0.00 | 44 | 1022.3 |
| 20260903035056 | 21 | 76 | 3.2 | 6.4 | 0.00 | 0.00 | 0.00 | 44 | 1022.2 |
| 20260903034604 | 22 | 80 | 3.2 | 8.0 | 0.00 | 0.00 | 0.00 | 44 | 1022.1 |
| 20260903034008 | 22 | 60 | 4.8 | 9.7 | 0.00 | 0.00 | 0.00 | 44 | 1022.1 |
| 20260903033602 | 22 | 51 | 4.8 | 9.7 | 0.00 | 0.00 | 0.00 | 44 | 1022.0 |
| 20260903033005 | 21 | 50 | 4.8 | 9.7 | 0.00 | 0.00 | 0.00 | 44 | 1021.9 |
| 20260903032603 | 21 | 49 | 4.8 | 9.7 | 0.00 | 0.00 | 0.00 | 44 | 1021.9 |
| 20260903032006 | 21 | 63 | 4.8 | 9.7 | 0.00 | 0.00 | 0.00 | 44 | 1021.9 |
| 20260903031602 | 21 | 30 | 3.2 | 6.4 | 0.00 | 0.00 | 0.00 | 43 | 1021.9 |
| 20260903031052 | 22 | 11 | 1.6 | 3.2 | 0.00 | 0.00 | 0.00 | 42 | 1021.8 |
| 20260903030600 | 22 | 351 | 1.6 | 3.2 | 0.00 | 0.00 | 0.00 | 42 | 1021.7 |
| 20260903030053 | 22 | 351 | 1.6 | 3.2 | 0.00 | 0.00 | 0.00 | 41 | 1021.7 |
| 20260903025543 | 22 | 351 | 1.6 | 3.2 | 0.00 | 0.00 | 0.00 | 41 | 1021.7 |
| 20260903025050 | 22 | 351 | 1.6 | 3.2 | 0.00 | 0.00 | 0.00 | 41 | 1021.6 |
| 20260903024559 | 22 | 315 | 1.6 | 3.2 | 0.00 | 0.00 | 0.00 | 41 | 1021.7 |
| 20260903024002 | 23 | 315 | 1.6 | 3.2 | 0.00 | 0.00 | 0.00 | 40 | 1021.6 |
| 20260903023556 | 23 | 315 | 1.6 | 3.2 | 0.00 | 0.00 | 0.00 | 40 | 1021.5 |
| 20260903023135 | 23 | 313 | 0.0 | 3.2 | 0.00 | 0.00 | 0.00 | 40 | 1021.6 |
| 20260903022555 | 23 | 311 | 0.0 | 3.2 | 0.00 | 0.00 | 0.00 | 40 | 1021.5 |
| 20260903022045 | 23 | 311 | 0.0 | 3.2 | 0.00 | 0.00 | 0.00 | 40 | 1021.5 |
| 20260903021554 | 23 | 311 | 1.6 | 3.2 | 0.00 | 0.00 | 0.00 | 39 | 1021.6 |
| 20260903021102 | 23 | 311 | 1.6 | 3.2 | 0.00 | 0.00 | 0.00 | 39 | 1021.6 |
| 20260903020507 | 23 | 311 | 1.6 | 4.8 | 0.00 | 0.00 | 0.00 | 39 | 1021.7 |
| 20260903020107 | 24 | 307 | 1.6 | 4.8 | 0.00 | 0.00 | 0.00 | 38 | 1021.5 |
| 20260903015552 | 24 | 307 | 1.6 | 6.4 | 0.00 | 0.00 | 0.00 | 38 | 1021.5 |
| 20260903015100 | 24 | 301 | 3.2 | 6.4 | 0.00 | 0.00 | 0.00 | 38 | 1021.6 |
| 20260903014553 | 24 | 302 | 3.2 | 8.0 | 0.00 | 0.00 | 0.00 | 38 | 1021.6 |
| 20260903014101 | 25 | 296 | 3.2 | 11.3 | 0.00 | 0.00 | 0.00 | 37 | 1021.7 |
| 20260903013504 | 25 | 298 | 4.8 | 11.3 | 0.00 | 0.00 | 0.00 | 37 | 1021.7 |
| 20260903013014 | 25 | 313 | 6.4 | 11.3 | 0.00 | 0.00 | 0.00 | 37 | 1021.6 |
| 20260903012503 | 25 | 306 | 4.8 | 12.9 | 0.00 | 0.00 | 0.00 | 37 | 1021.7 |
| 20260903012058 | 25 | 315 | 6.4 | 12.9 | 0.00 | 0.00 | 0.00 | 37 | 1021.6 |
| 20260903011502 | 25 | 322 | 6.4 | 12.9 | 0.00 | 0.00 | 0.00 | 37 | 1021.7 |
| 20260903011059 | 26 | 295 | 8.0 | 12.9 | 0.00 | 0.00 | 0.00 | 36 | 1021.7 |
| 20260903010502 | 26 | 322 | 4.8 | 11.3 | 0.00 | 0.00 | 0.00 | 36 | 1021.6 |
| 20260903010100 | 26 | 280 | 4.8 | 11.3 | 0.00 | 0.00 | 0.00 | 35 | 1021.7 |
| 20260903005551 | 26 | 291 | 4.8 | 11.3 | 0.00 | 0.00 | 0.00 | 35 | 1021.7 |
| 20260903005058 | 26 | 288 | 4.8 | 11.3 | 0.00 | 0.00 | 0.00 | 35 | 1021.7 |
| 20260903004551 | 26 | 271 | 1.6 | 9.7 | 0.00 | 0.00 | 0.00 | 35 | 1021.7 |
| 20260903004059 | 26 | 267 | 3.2 | 9.7 | 0.00 | 0.00 | 0.00 | 34 | 1021.8 |
| 20260903003552 | 26 | 263 | 4.8 | 12.9 | 0.00 | 0.00 | 0.00 | 34 | 1021.7 |
| 20260903003049 | 26 | 226 | 6.4 | 19.3 | 0.00 | 0.00 | 0.00 | 34 | 1021.9 |
| 20260903002551 | 26 | 298 | 12.9 | 19.3 | 0.00 | 0.00 | 0.00 | 35 | 1021.8 |
| 20260903002058 | 26 | 329 | 8.0 | 19.3 | 0.00 | 0.00 | 0.00 | 38 | 1021.8 |
| 20260903001503 | 26 | 330 | 6.4 | 19.3 | 0.00 | 0.00 | 0.00 | 36 | 1021.8 |
| 20260903001055 | 26 | 315 | 9.7 | 16.1 | 0.00 | 0.00 | 0.00 | 36 | 1021.8 |
| 20260903000603 | 26 | 350 | 4.8 | 16.1 | 0.00 | 0.00 | 0.00 | 38 | 1021.7 |
| 20260903000055 | 26 | 323 | 9.7 | 20.9 | 0.00 | 0.00 | 0.00 | 37 | 1021.8 |
| 20260902235546 | 26 | 290 | 12.9 | 24.1 | 0.00 | 0.00 | 0.00 | 36 | 1021.7 |
| 20260902235055 | 26 | 281 | 12.9 | 24.1 | 0.00 | 0.00 | 0.00 | 35 | 1021.7 |
| 20260902234605 | 26 | 312 | 12.9 | 19.3 | 0.00 | 0.00 | 0.00 | 35 | 1021.8 |
| 20260902234004 | 26 | 302 | 14.5 | 22.5 | 0.00 | 0.00 | 0.00 | 36 | 1021.8 |
| 20260902233601 | 26 | 300 | 12.9 | 25.7 | 0.00 | 0.00 | 0.00 | 35 | 1021.8 |
| 20260902233013 | 26 | 282 | 12.9 | 25.7 | 0.00 | 0.00 | 0.00 | 35 | 1021.8 |
| 20260902232602 | 26 | 290 | 12.9 | 25.7 | 0.00 | 0.00 | 0.00 | 36 | 1021.8 |
| 20260902232051 | 26 | 297 | 14.5 | 27.4 | 0.00 | 0.00 | 0.00 | 37 | 1021.8 |
| 20260902231604 | 26 | 277 | 17.7 | 32.2 | 0.00 | 0.00 | 0.00 | 38 | 1021.7 |
| 20260902231053 | 26 | 305 | 16.1 | 32.2 | 0.00 | 0.00 | 0.00 | 38 | 1021.7 |
| 20260902230545 | 26 | 267 | 17.7 | 30.6 | 0.00 | 0.00 | 0.00 | 38 | 1021.8 |
| 20260902230052 | 27 | 319 | 19.3 | 30.6 | 0.00 | 0.00 | 0.00 | 36 | 1021.7 |
| 20260902225559 | 27 | 270 | 17.7 | 30.6 | 0.00 | 0.00 | 0.00 | 31 | 1021.7 |
| 20260902225002 | 27 | 238 | 12.9 | 27.4 | 0.00 | 0.00 | 0.00 | 29 | 1021.7 |
| 20260902224556 | 28 | 292 | 14.5 | 27.4 | 0.00 | 0.00 | 0.00 | 29 | 1021.8 |
| 20260902224104 | 28 | 258 | 14.5 | 25.7 | 0.00 | 0.00 | 0.00 | 28 | 1021.7 |
| 20260902223557 | 29 | 306 | 14.5 | 29.0 | 0.00 | 0.00 | 0.00 | 27 | 1021.7 |
| 20260902223109 | 29 | 329 | 17.7 | 29.0 | 0.00 | 0.00 | 0.00 | 27 | 1021.6 |
| 20260902222600 | 29 | 281 | 9.7 | 24.1 | 0.00 | 0.00 | 0.00 | 28 | 1021.6 |
| 20260902222047 | 30 | 290 | 11.3 | 19.3 | 0.00 | 0.00 | 0.00 | 27 | 1021.6 |
| 20260902221558 | 30 | 232 | 8.0 | 16.1 | 0.00 | 0.00 | 0.00 | 27 | 1021.7 |
| 20260902221105 | 30 | 270 | 8.0 | 16.1 | 0.00 | 0.00 | 0.00 | 27 | 1021.7 |
| 20260902220505 | 30 | 329 | 8.0 | 19.3 | 0.00 | 0.00 | 0.00 | 28 | 1021.7 |
| 20260902220050 | 30 | 282 | 11.3 | 19.3 | 0.00 | 0.00 | 0.00 | 28 | 1021.9 |
| 20260902215559 | 30 | 290 | 8.0 | 24.1 | 0.00 | 0.00 | 0.00 | 27 | 1021.9 |
| 20260902215102 | 30 | 275 | 6.4 | 25.7 | 0.00 | 0.00 | 0.00 | 27 | 1022.1 |
| 20260902214554 | 30 | 259 | 6.4 | 25.7 | 0.00 | 0.00 | 0.00 | 27 | 1022.0 |
| 20260902214105 | 30 | 203 | 9.7 | 25.7 | 0.00 | 0.00 | 0.00 | 28 | 1022.0 |
| 20260902213506 | 30 | 223 | 6.4 | 16.1 | 0.00 | 0.00 | 0.00 | 27 | 1022.0 |
| 20260902213101 | 30 | 234 | 4.8 | 22.5 | 0.00 | 0.00 | 0.00 | 28 | 1022.1 |
| 20260902212503 | 29 | 218 | 11.3 | 22.5 | 0.00 | 0.00 | 0.00 | 27 | 1022.1 |
| 20260902212101 | 28 | 160 | 4.8 | 16.1 | 0.00 | 0.00 | 0.00 | 29 | 1022.1 |
| 20260902211503 | 28 | 184 | 9.7 | 24.1 | 0.00 | 0.00 | 0.00 | 29 | 1022.2 |
| 20260902211101 | 28 | 175 | 11.3 | 24.1 | 0.00 | 0.00 | 0.00 | 29 | 1022.3 |
| 20260902210552 | 28 | 187 | 11.3 | 24.1 | 0.00 | 0.00 | 0.00 | 29 | 1022.4 |
| 20260902210100 | 28 | 167 | 14.5 | 24.1 | 0.00 | 0.00 | 0.00 | 29 | 1022.4 |
| 20260902205550 | 28 | 192 | 9.7 | 17.7 | 0.00 | 0.00 | 0.00 | 29 | 1022.4 |
| 20260902205058 | 28 | 228 | 8.0 | 20.9 | 0.00 | 0.00 | 0.00 | 30 | 1022.6 |
| 20260902204503 | 28 | 201 | 11.3 | 20.9 | 0.00 | 0.00 | 0.00 | 30 | 1022.6 |
| 20260902204009 | 28 | 119 | 4.8 | 16.1 | 0.00 | 0.00 | 0.00 | 30 | 1022.7 |
| 20260902203604 | 28 | 163 | 1.6 | 16.1 | 0.00 | 0.00 | 0.00 | 30 | 1022.8 |
| 20260902203008 | 28 | 260 | 1.6 | 24.1 | 0.00 | 0.00 | 0.00 | 30 | 1022.9 |
| 20260902202604 | 28 | 198 | 8.0 | 24.1 | 0.00 | 0.00 | 0.00 | 30 | 1022.9 |
| 20260902202056 | 29 | 200 | 8.0 | 17.7 | 0.00 | 0.00 | 0.00 | 30 | 1023.0 |
| 20260902201605 | 28 | 182 | 4.8 | 9.7 | 0.00 | 0.00 | 0.00 | 30 | 1023.0 |
| 20260902201057 | 28 | 302 | 4.8 | 11.3 | 0.00 | 0.00 | 0.00 | 30 | 1023.1 |
| 20260902200604 | 28 | 302 | 4.8 | 11.3 | 0.00 | 0.00 | 0.00 | 30 | 1023.1 |
| 20260902200055 | 28 | 218 | 1.6 | 14.5 | 0.00 | 0.00 | 0.00 | 29 | 1023.2 |
| 20260902195548 | 29 | 321 | 1.6 | 14.5 | 0.00 | 0.00 | 0.00 | 29 | 1023.3 |
| 20260902195054 | 28 | 213 | 4.8 | 19.3 | 0.00 | 0.00 | 0.00 | 30 | 1023.3 |
| 20260902194600 | 28 | 304 | 9.7 | 19.3 | 0.00 | 0.00 | 0.00 | 30 | 1023.4 |
| 20260902194004 | 28 | 259 | 0.0 | 9.7 | 0.00 | 0.00 | 0.00 | 29 | 1023.5 |
| 20260902193604 | 28 | 288 | 1.6 | 12.9 | 0.00 | 0.00 | 0.00 | 30 | 1023.6 |
| 20260902193005 | 28 | 292 | 6.4 | 22.5 | 0.00 | 0.00 | 0.00 | 30 | 1023.7 |
| 20260902192602 | 28 | 230 | 4.8 | 22.5 | 0.00 | 0.00 | 0.00 | 30 | 1023.7 |
| 20260902192052 | 28 | 310 | 3.2 | 6.4 | 0.00 | 0.00 | 0.00 | 29 | 1023.8 |
| 20260902191610 | 28 | 323 | 1.6 | 14.5 | 0.00 | 0.00 | 0.00 | 28 | 1023.9 |
| 20260902191003 | 29 | 209 | 4.8 | 16.1 | 0.00 | 0.00 | 0.00 | 28 | 1023.9 |
| 20260902190511 | 29 | 311 | 4.8 | 16.1 | 0.00 | 0.00 | 0.00 | 27 | 1024.0 |
| 20260902190105 | 29 | 207 | 8.0 | 17.7 | 0.00 | 0.00 | 0.00 | 29 | 1024.0 |
| 20260902185555 | 28 | 230 | 6.4 | 22.5 | 0.00 | 0.00 | 0.00 | 30 | 1024.1 |
| 20260902185101 | 28 | 210 | 9.7 | 22.5 | 0.00 | 0.00 | 0.00 | 30 | 1024.2 |
| 20260902184557 | 28 | 277 | 3.2 | 12.9 | 0.00 | 0.00 | 0.00 | 31 | 1024.2 |
| 20260902184104 | 28 | 302 | 3.2 | 20.9 | 0.00 | 0.00 | 0.00 | 31 | 1024.3 |
| 20260902183600 | 27 | 236 | 4.8 | 20.9 | 0.00 | 0.00 | 0.00 | 32 | 1024.5 |
| 20260902183045 | 28 | 323 | 8.0 | 12.9 | 0.00 | 0.00 | 0.00 | 29 | 1024.5 |
| 20260902182554 | 28 | 215 | 6.4 | 17.7 | 0.00 | 0.00 | 0.00 | 30 | 1024.6 |
| 20260902182104 | 27 | 286 | 4.8 | 17.7 | 0.00 | 0.00 | 0.00 | 31 | 1024.6 |
| 20260902181504 | 28 | 275 | 3.2 | 11.3 | 0.00 | 0.00 | 0.00 | 31 | 1024.7 |
| 20260902181101 | 27 | 206 | 4.8 | 11.3 | 0.00 | 0.00 | 0.00 | 32 | 1024.8 |
| 20260902180503 | 27 | 287 | 1.6 | 12.9 | 0.00 | 0.00 | 0.00 | 32 | 1024.9 |
| 20260902180018 | 27 | 142 | 4.8 | 12.9 | 0.00 | 0.00 | 0.00 | 30 | 1025.0 |
| 20260902175526 | 27 | 190 | 6.4 | 12.9 | 0.00 | 0.00 | 0.00 | 34 | 1025.0 |
| 20260902175035 | 27 | 237 | 3.2 | 14.5 | 0.00 | 0.00 | 0.00 | 33 | 1025.0 |
| 20260902174552 | 27 | 169 | 3.2 | 14.5 | 0.00 | 0.00 | 0.00 | 33 | 1025.0 |
| 20260902174052 | 27 | 263 | 3.2 | 11.3 | 0.00 | 0.00 | 0.00 | 34 | 1025.1 |
| 20260902173556 | 26 | 192 | 6.4 | 11.3 | 0.00 | 0.00 | 0.00 | 35 | 1025.0 |
| 20260902173103 | 26 | 229 | 3.2 | 9.7 | 0.00 | 0.00 | 0.00 | 35 | 1025.1 |
| 20260902172506 | 26 | 204 | 3.2 | 9.7 | 0.00 | 0.00 | 0.00 | 36 | 1025.1 |
| 20260902172100 | 26 | 252 | 3.2 | 9.7 | 0.00 | 0.00 | 0.00 | 36 | 1025.1 |
| 20260902171504 | 26 | 92 | 3.2 | 11.3 | 0.00 | 0.00 | 0.00 | 37 | 1025.2 |
| 20260902171100 | 25 | 78 | 3.2 | 11.3 | 0.00 | 0.00 | 0.00 | 36 | 1025.1 |
| 20260902170550 | 25 | 153 | 6.4 | 11.3 | 0.00 | 0.00 | 0.00 | 38 | 1025.2 |
| 20260902170059 | 25 | 148 | 3.2 | 8.0 | 0.00 | 0.00 | 0.00 | 38 | 1025.3 |
| 20260902165501 | 25 | 180 | 4.8 | 11.3 | 0.00 | 0.00 | 0.00 | 37 | 1025.4 |
| 20260902165009 | 25 | 154 | 6.4 | 11.3 | 0.00 | 0.00 | 0.00 | 37 | 1025.3 |
| 20260902164517 | 25 | 209 | 1.6 | 9.7 | 0.00 | 0.00 | 0.00 | 38 | 1025.3 |
| 20260902164027 | 24 | 136 | 4.8 | 8.0 | 0.00 | 0.00 | 0.00 | 38 | 1025.4 |
| 20260902163533 | 24 | 207 | 3.2 | 6.4 | 0.00 | 0.00 | 0.00 | 38 | 1025.4 |
| 20260902163041 | 23 | 209 | 3.2 | 6.4 | 0.00 | 0.00 | 0.00 | 40 | 1025.3 |
| 20260902162532 | 23 | 67 | 1.6 | 11.3 | 0.00 | 0.00 | 0.00 | 41 | 1025.3 |
| 20260902162041 | 23 | 179 | 1.6 | 11.3 | 0.00 | 0.00 | 0.00 | 41 | 1025.4 |
| 20260902161548 | 23 | 157 | 4.8 | 11.3 | 0.00 | 0.00 | 0.00 | 41 | 1025.3 |
| 20260902161055 | 23 | 183 | 3.2 | 9.7 | 0.00 | 0.00 | 0.00 | 42 | 1025.3 |
| 20260902160548 | 22 | 138 | 4.8 | 11.3 | 0.00 | 0.00 | 0.00 | 42 | 1025.3 |
| 20260902160058 | 22 | 159 | 4.8 | 12.9 | 0.00 | 0.00 | 0.00 | 42 | 1025.2 |
| 20260902155605 | 22 | 125 | 6.4 | 12.9 | 0.00 | 0.00 | 0.00 | 43 | 1025.3 |
| 20260902155009 | 22 | 132 | 3.2 | 12.9 | 0.00 | 0.00 | 0.00 | 44 | 1025.3 |
| 20260902154610 | 21 | 85 | 3.2 | 12.9 | 0.00 | 0.00 | 0.00 | 44 | 1025.3 |
| 20260902154006 | 21 | 98 | 3.2 | 14.5 | 0.00 | 0.00 | 0.00 | 45 | 1025.4 |
| 20260902153602 | 21 | 100 | 4.8 | 12.9 | 0.00 | 0.00 | 0.00 | 45 | 1025.4 |
| 20260902153055 | 21 | 88 | 4.8 | 14.5 | 0.00 | 0.00 | 0.00 | 45 | 1025.4 |
| 20260902152603 | 20 | 85 | 6.4 | 14.5 | 0.00 | 0.00 | 0.00 | 45 | 1025.5 |
| 20260902152057 | 20 | 96 | 6.4 | 11.3 | 0.00 | 0.00 | 0.00 | 45 | 1025.5 |
| 20260902151547 | 20 | 101 | 4.8 | 11.3 | 0.00 | 0.00 | 0.00 | 47 | 1025.4 |
| 20260902151057 | 20 | 129 | 3.2 | 11.3 | 0.00 | 0.00 | 0.00 | 46 | 1025.5 |
| 20260902150547 | 19 | 123 | 6.4 | 12.9 | 0.00 | 0.00 | 0.00 | 46 | 1025.5 |
| 20260902150037 | 19 | 133 | 4.8 | 12.9 | 0.00 | 0.00 | 0.00 | 46 | 1025.5 |
| 20260902145545 | 18 | 111 | 6.4 | 12.9 | 0.00 | 0.00 | 0.00 | 46 | 1025.5 |
| 20260902145052 | 18 | 126 | 6.4 | 12.9 | 0.00 | 0.00 | 0.00 | 46 | 1025.4 |
| 20260902144559 | 18 | 100 | 8.0 | 14.5 | 0.00 | 0.00 | 0.00 | 47 | 1025.4 |
| 20260902144106 | 18 | 131 | 8.0 | 12.9 | 0.00 | 0.00 | 0.00 | 47 | 1025.4 |
| 20260902143508 | 17 | 126 | 4.8 | 14.5 | 0.00 | 0.00 | 0.00 | 47 | 1025.3 |
| 20260902143102 | 17 | 133 | 9.7 | 14.5 | 0.00 | 0.00 | 0.00 | 47 | 1025.3 |
| 20260902142505 | 17 | 123 | 4.8 | 12.9 | 0.00 | 0.00 | 0.00 | 48 | 1025.3 |
| 20260902142102 | 17 | 90 | 4.8 | 12.9 | 0.00 | 0.00 | 0.00 | 47 | 1025.3 |
| 20260902141507 | 17 | 126 | 4.8 | 12.9 | 0.00 | 0.00 | 0.00 | 48 | 1025.2 |
| 20260902141013 | 17 | 130 | 6.4 | 12.9 | 0.00 | 0.00 | 0.00 | 49 | 1025.1 |
| 20260902140520 | 16 | 67 | 4.8 | 14.5 | 0.00 | 0.00 | 0.00 | 50 | 1025.1 |
| 20260902140108 | 16 | 103 | 6.4 | 14.5 | 0.00 | 0.00 | 0.00 | 50 | 1025.0 |
| 20260902135506 | 16 | 92 | 6.4 | 14.5 | 0.00 | 0.00 | 0.00 | 52 | 1025.0 |
| 20260902135102 | 15 | 103 | 6.4 | 14.5 | 0.00 | 0.00 | 0.00 | 54 | 1025.0 |
| 20260902134504 | 15 | 117 | 6.4 | 14.5 | 0.00 | 0.00 | 0.00 | 55 | 1024.9 |
| 20260902134100 | 15 | 90 | 8.0 | 14.5 | 0.00 | 0.00 | 0.00 | 55 | 1024.9 |
| 20260902133605 | 15 | 92 | 8.0 | 14.5 | 0.00 | 0.00 | 0.00 | 55 | 1024.8 |
| 20260902133009 | 14 | 90 | 8.0 | 14.5 | 0.00 | 0.00 | 0.00 | 55 | 1024.8 |
| 20260902132504 | 14 | 113 | 8.0 | 14.5 | 0.00 | 0.00 | 0.00 | 55 | 1024.9 |
| 20260902132009 | 14 | 72 | 8.0 | 12.9 | 0.00 | 0.00 | 0.00 | 56 | 1024.9 |
| 20260902131502 | 14 | 96 | 6.4 | 11.3 | 0.00 | 0.00 | 0.00 | 56 | 1024.8 |
| 20260902131057 | 14 | 94 | 8.0 | 11.3 | 0.00 | 0.00 | 0.00 | 56 | 1024.8 |
| 20260902130606 | 13 | 84 | 6.4 | 12.9 | 0.00 | 0.00 | 0.00 | 56 | 1024.8 |
| 20260902130057 | 13 | 106 | 4.8 | 12.9 | 0.00 | 0.00 | 0.00 | 56 | 1024.7 |
| 20260902125606 | 13 | 79 | 6.4 | 16.1 | 0.00 | 0.00 | 0.00 | 56 | 1024.6 |
| 20260902125057 | 13 | 98 | 6.4 | 16.1 | 0.00 | 0.00 | 0.00 | 57 | 1024.6 |
| 20260902124547 | 13 | 94 | 6.4 | 12.9 | 0.00 | 0.00 | 0.00 | 57 | 1024.3 |
| 20260902124054 | 13 | 101 | 6.4 | 12.9 | 0.00 | 0.00 | 0.00 | 57 | 1024.5 |